Theta_e
305 306 307 306 307 308 309 308 307 307 306 311 312 314 315 316 317 317 317 318 320 322 325 327 327 329 331 328 330 327 328 327 331 332 334 332 329 329 327 324 324 328 329 332
306 307 306 308 308 310 311 309 309 309 309 311 313 315 314 316 316 316 317 317 319 322 328 328 327 330 329 329 328 330 329 329 331 330 330 334 335 334 332 329 326 326 328 332
308 308 307 308 309 309 309 310 310 312 312 313 313 316 318 318 317 316 317 316 319 321 329 328 326 327 326 324 329 328 329 329 328 328 330 330 331 331 334 335 333 333 332 332
309 307 308 309 309 308 309 309 309 314 315 318 317 319 319 319 319 318 317 319 321 322 326 326 323 323 323 323 329 327 326 326 327 327 328 329 330 329 329 329 330 330 330 330
312 309 309 311 309 308 311 312 311 316 318 321 321 323 319 319 320 320 320 319 321 321 325 325 326 325 326 324 328 328 325 325 326 327 327 327 328 328 328 329 329 329 329 328
309 308 309 311 312 310 311 313 314 317 319 320 319 321 322 317 318 320 317 320 321 321 324 323 324 323 324 326 325 324 324 324 325 324 325 325 326 325 327 327 329 330 329 328
313 313 312 313 314 311 310 317 322 322 322 320 319 320 320 313 312 315 315 312 319 320 323 324 324 325 324 325 326 327 325 325 326 325 325 324 324 324 325 324 325 327 328 328
318 316 312 314 316 317 312 317 320 323 322 321 318 319 317 314 312 311 311 312 314 317 317 317 317 317 318 319 323 326 327 327 327 328 328 328 328 329 329 329 329 327 328 329
318 318 314 315 316 316 317 316 312 318 317 319 318 315 315 313 313 313 313 312 313 314 316 315 314 315 316 316 318 319 319 320 321 323 327 329 329 328 329 329 329 329 330 329
315 317 315 316 316 317 314 312 318 321 320 318 318 318 317 314 313 313 313 312 312 312 312 312 312 313 315 315 315 316 317 317 317 318 319 320 320 323 327 327 327 327 327 328
313 317 317 316 317 316 317 317 315 314 315 316 317 316 312 312 314 314 313 313 312 312 312 312 311 312 312 313 316 315 315 314 316 316 317 318 319 320 323 325 325 325 327 326
312 316 318 317 314 312 314 315 315 320 315 316 316 315 313 313 313 313 313 312 312 312 312 311 311 311 311 311 311 313 316 316 315 316 316 318 320 321 323 323 322 320 320 320
311 314 318 317 316 314 315 314 314 314 319 316 318 315 313 314 313 312 312 312 312 312 312 312 311 311 310 310 311 311 311 312 316 316 317 318 319 320 319 318 317 318 319 320
311 313 315 318 316 314 315 314 314 317 323 317 315 315 313 311 312 311 311 311 311 311 311 311 311 310 310 310 309 310 310 311 311 312 314 316 316 316 316 316 316 317 319 322
314 314 312 312 312 313 313 313 314 315 315 317 315 313 312 311 311 310 310 310 310 310 309 309 309 309 309 309 309 308 308 309 309 310 311 312 313 315 315 315 315 316 319 325
312 313 311 312 311 312 311 311 313 313 314 314 314 312 311 310 309 309 309 309 309 308 308 308 308 308 308 308 308 308 308 308 307 308 308 309 310 312 313 314 315 315 317 322
312 313 314 314 310 310 313 310 311 311 310 312 313 312 310 310 309 309 309 308 306 305 304 304 305 305 306 306 307 307 307 307 307 307 307 308 308 309 310 312 313 314 314 316
311 312 312 313 310 313 310 308 308 309 309 310 310 310 309 308 308 308 308 307 304 301 300 300 300 301 301 301 302 303 304 305 306 307 307 307 308 309 308 309 311 312 313 314
310 311 311 312 309 309 308 307 308 309 310 309 310 309 308 306 306 309 307 303 300 299 299 300 300 300 300 300 301 301 301 302 303 304 305 306 307 308 308 308 308 311 313 313
310 310 311 310 310 308 310 308 308 308 310 308 308 307 306 305 307 307 301 299 299 300 300 300 300 300 300 300 301 301 301 301 301 302 302 303 304 306 307 307 307 308 311 313
311 311 312 311 312 310 309 308 307 310 311 307 307 305 304 304 302 300 298 299 299 299 299 298 298 297 298 298 298 299 299 300 300 301 301 302 303 304 307 307 307 307 308 311
310 310 311 311 311 311 307 307 309 309 307 306 305 303 301 299 298 298 299 299 299 298 298 298 297 297 297 297 297 298 298 299 300 300 300 301 302 303 305 307 307 307 306 309
309 309 310 310 311 307 307 308 306 307 306 304 303 300 298 298 298 298 298 298 298 298 297 296 295 295 295 295 296 296 296 297 297 298 299 300 302 303 304 305 307 306 305 306
308 306 308 308 308 307 307 306 305 304 304 301 298 296 297 297 297 297 297 297 297 296 295 294 294 294 294 295 295 294 295 297 298 299 298 300 301 302 303 304 304 305 305 304
308 306 308 308 308 305 306 307 305 303 301 299 296 295 296 297 296 296 296 295 295 294 294 293 293 293 293 292 294 294 295 297 298 299 300 300 300 302 303 303 305 304 304 305
306 307 308 308 309 308 308 306 305 303 301 298 296 296 296 295 296 295 295 294 294 293 292 292 292 292 292 292 293 294 294 296 297 298 299 299 301 301 303 303 302 302 302 303
Wind_Speed
10 6 12 15 16 20 17 16 14 16 19 21 20 17 15 13 11 16 13 11 12 16 12 25 25 22 25 23 25 41 30 31 27 24 22 22 22 21 21 18 19 20 20 19
5 15 15 11 15 15 16 13 17 17 14 18 18 15 12 12 14 18 15 13 14 12 8 21 21 19 15 15 26 26 35 35 24 18 16 17 18 20 17 18 17 15 16 15
11 6 3 7 12 12 14 18 17 6 20 19 14 11 10 7 8 12 12 15 12 7 14 17 13 11 9 10 30 29 30 34 24 14 17 13 11 15 15 14 16 17 16 16
7 6 8 11 13 13 14 14 9 17 18 9 16 6 5 5 6 10 12 10 7 6 14 18 6 5 4 6 27 33 28 29 23 18 18 15 14 11 16 14 17 19 19 15
3 2 5 8 10 10 8 14 10 15 8 14 6 3 5 6 2 4 2 6 7 10 16 15 9 6 2 4 8 25 17 16 33 32 31 21 18 16 16 17 17 22 22 23
3 3 3 6 7 10 9 4 7 3 5 5 5 3 10 7 6 1 9 7 11 13 14 12 11 15 13 11 11 20 23 20 22 19 23 25 25 24 21 24 21 23 26 30
2 1 4 6 2 6 3 5 2 1 3 4 8 6 6 11 10 3 5 5 11 13 17 15 13 15 15 19 22 24 28 31 27 25 22 22 27 25 26 26 21 23 30 33
4 3 5 3 4 3 6 5 3 3 2 5 11 8 5 10 8 7 4 6 13 13 16 13 11 11 11 10 12 22 24 27 27 31 28 30 32 29 29 32 32 38 38 32
1 3 5 1 7 6 4 2 4 1 11 5 3 1 3 9 10 12 5 20 19 14 13 11 11 11 10 12 15 16 17 20 19 19 19 28 28 27 29 27 26 30 28 27
3 2 4 7 7 3 2 2 3 1 2 6 5 5 5 11 14 13 13 21 19 13 12 10 9 7 6 3 5 10 16 17 18 19 21 22 21 21 24 23 23 23 23 22
1 3 5 3 8 9 8 6 4 4 3 3 5 6 6 9 12 14 15 19 17 14 13 13 14 15 13 9 6 1 3 8 13 14 17 19 19 20 21 23 22 23 23 23
5 3 3 2 4 2 5 7 6 4 3 4 8 6 6 9 11 12 14 15 16 17 16 18 16 14 13 13 13 10 7 3 6 11 13 14 16 18 19 20 20 22 23 23
6 3 1 3 4 4 4 10 9 3 4 5 1 7 7 8 11 15 15 15 15 15 16 16 15 14 15 14 13 13 12 9 6 7 9 11 14 17 19 19 20 21 22 23
4 5 5 5 5 5 7 12 13 5 5 12 12 15 10 9 10 11 14 13 13 15 17 17 14 14 14 13 12 12 13 13 13 11 10 11 14 16 17 19 20 20 21 21
3 4 5 8 6 5 7 10 13 11 6 9 13 12 9 9 9 10 10 12 16 17 18 16 16 16 14 14 13 13 14 15 15 16 16 16 15 17 18 20 20 20 19 22
1 3 1 4 6 4 7 10 7 10 9 8 10 8 5 7 8 9 11 12 13 14 15 17 19 19 19 19 18 19 16 16 18 20 20 19 21 21 20 20 21 22 23 25
4 2 0 2 3 1 1 8 7 5 8 5 1 4 3 4 5 3 5 6 7 7 10 11 12 15 18 21 23 24 25 25 24 22 22 22 24 25 25 25 24 25 25 26
2 2 2 2 3 2 4 3 2 4 3 4 6 3 2 4 7 6 3 6 11 13 10 8 9 13 16 19 21 24 26 28 30 30 30 27 25 27 28 29 31 30 29 29
4 1 1 2 3 3 1 3 3 2 1 2 3 1 3 8 12 2 1 12 20 22 22 21 20 21 20 18 18 20 22 25 29 30 29 29 29 30 30 32 34 35 34 33
2 2 3 1 2 2 5 7 4 1 4 8 5 2 3 9 6 3 12 17 19 18 19 21 24 25 24 24 24 24 24 24 26 29 32 33 34 34 34 33 36 35 38 37
1 2 4 2 2 0 8 10 6 4 3 12 8 3 2 4 7 16 19 20 19 19 21 24 23 23 24 25 26 29 31 30 29 30 32 35 35 37 37 36 34 36 38 40
3 2 3 1 2 2 12 6 4 6 10 8 5 1 5 9 12 15 16 18 18 20 21 20 22 25 27 29 30 32 33 32 32 34 37 37 36 35 35 35 34 37 39 39
3 2 3 4 1 2 17 1 5 5 7 5 4 3 6 10 12 13 16 17 17 18 18 19 21 25 28 28 27 33 37 37 39 39 38 35 35 33 33 34 34 35 41 42
4 4 3 3 3 7 11 8 8 7 6 6 5 6 6 10 12 14 15 16 17 17 19 21 24 24 28 28 29 32 34 36 33 32 33 34 32 31 32 33 32 35 42 44
3 7 5 9 10 3 12 14 12 10 8 6 6 6 7 9 13 14 16 17 17 18 19 22 22 25 31 32 33 31 32 33 32 28 27 27 30 32 33 36 33 38 41 44
11 9 6 4 2 6 1 15 14 12 10 7 5 7 7 10 13 14 16 17 18 20 23 24 26 31 33 32 32 31 31 32 30 28 25 27 29 29 30 29 37 36 34 38
Wind_Direction
199 224 238 242 248 254 284 283 274 256 221 201 206 210 236 241 222 228 258 297 286 281 281 223 222 233 211 210 204 197 189 180 179 184 182 184 188 191 197 203 205 203 200 203
202 242 254 302 261 251 250 264 265 250 199 188 201 204 226 232 226 230 227 283 278 301 259 197 199 164 170 198 210 207 189 187 176 192 194 191 199 199 198 199 201 208 209 210
231 234 148 283 263 233 231 248 267 234 171 209 173 206 200 231 239 221 226 264 269 268 170 156 180 191 223 285 211 201 192 195 206 198 200 197 207 207 212 212 211 212 219 222
249 280 254 253 237 230 252 244 247 182 169 165 197 151 171 197 228 216 208 240 225 184 153 157 150 114 120 231 198 201 200 196 218 224 212 219 220 224 237 242 240 229 222 222
80 232 186 220 230 214 262 304 225 217 202 124 184 224 81 55 101 162 76 206 155 159 155 139 152 214 292 131 178 182 168 195 217 234 232 242 249 266 240 243 240 239 245 251
285 282 242 269 270 227 284 293 326 333 279 81 39 220 67 8 340 47 30 126 138 132 142 157 153 196 217 210 180 166 197 193 196 209 219 241 255 270 248 237 244 255 261 259
250 226 265 247 264 155 319 279 132 127 56 52 12 44 57 7 336 341 348 6 128 135 127 138 168 189 202 217 215 216 216 223 217 212 213 213 224 231 236 244 256 261 259 257
5 278 352 304 253 219 200 259 331 64 70 92 40 14 8 306 77 54 15 127 122 126 130 144 168 190 196 194 201 218 227 235 231 234 234 241 242 248 246 246 246 235 248 250
316 358 305 296 326 345 358 18 317 286 111 90 68 352 0 69 66 96 134 95 102 124 138 151 163 175 183 198 206 211 215 222 224 231 227 229 234 239 245 241 242 244 245 250
346 7 341 306 293 219 324 303 228 242 74 81 100 46 45 37 77 74 52 75 85 88 91 102 109 111 111 146 208 220 224 227 228 230 232 234 236 237 243 243 244 245 247 245
8 320 321 285 18 3 354 2 340 303 338 106 124 75 9 64 64 79 81 73 73 71 75 70 61 56 55 54 46 32 238 235 241 240 239 240 242 242 239 239 238 243 242 240
16 27 66 17 323 326 302 13 3 319 14 15 84 73 67 75 57 75 78 69 56 61 62 56 46 40 33 28 30 28 19 329 255 241 237 237 238 241 238 239 237 239 239 239
343 30 177 286 212 186 34 10 4 3 355 2 22 116 106 74 60 49 52 49 50 48 49 52 45 39 29 16 7 3 4 0 330 293 262 249 245 243 244 244 244 241 239 236
280 29 13 56 35 339 5 18 30 50 39 70 94 118 79 65 56 49 52 57 55 47 40 34 30 28 22 15 7 353 343 334 327 316 293 273 264 257 252 251 250 247 245 236
0 59 50 57 41 39 31 25 33 55 36 109 119 102 82 59 57 67 58 48 43 38 32 22 13 4 355 354 352 342 336 324 316 310 306 295 277 267 262 260 255 253 244 231
48 125 13 45 32 34 46 30 36 52 55 95 111 92 67 75 79 80 69 63 48 28 7 356 351 345 341 338 334 325 324 319 312 309 301 290 287 280 270 262 258 252 244 235
14 126 270 84 11 323 222 18 35 60 47 350 120 85 31 54 42 57 106 91 60 10 340 330 325 316 311 307 306 309 309 305 300 298 294 292 288 280 273 268 259 251 246 240
95 72 348 29 325 354 68 13 345 78 56 99 108 108 44 348 317 303 231 347 339 337 326 307 298 294 294 299 302 303 297 295 294 291 289 286 283 280 273 264 257 253 247 243
11 276 136 244 217 90 197 184 187 235 208 199 154 172 6 343 321 98 54 338 335 335 330 328 326 322 320 317 310 301 293 290 289 292 291 289 283 278 273 265 257 250 244 240
303 309 280 200 254 254 98 145 165 201 246 177 188 197 348 341 320 43 345 332 328 324 326 326 322 320 319 320 318 314 307 300 291 283 280 281 281 278 273 269 263 255 247 242
260 272 260 254 297 250 145 149 159 233 101 162 174 188 316 304 305 308 317 318 320 324 323 322 324 322 320 319 315 310 305 299 296 291 283 277 275 272 275 275 264 259 250 241
277 244 217 194 249 252 153 131 216 108 131 151 169 221 283 294 303 303 307 309 315 316 320 319 316 315 314 313 311 310 308 304 293 285 281 283 279 274 269 266 265 253 249 240
255 272 335 246 20 89 184 59 129 156 162 168 170 239 282 291 289 296 301 309 310 309 311 314 315 311 318 325 321 309 306 306 303 293 284 272 271 270 263 261 259 247 244 240
224 201 243 320 174 216 205 209 192 181 170 170 222 264 278 282 301 301 304 311 308 314 319 320 320 318 316 318 315 314 322 323 314 300 284 266 269 265 263 256 255 243 241 238
351 155 241 259 260 262 234 218 201 188 192 228 271 286 281 293 298 305 310 310 313 314 317 316 316 314 316 324 327 326 323 323 317 310 292 278 272 271 263 256 261 248 239 241
203 217 206 239 185 218 53 208 199 195 213 239 267 272 277 289 297 309 307 313 315 316 315 316 317 321 325 328 329 332 328 329 322 308 301 290 281 277 262 263 270 249 246 242